Flag for United Kingdom Weather past 2 weeks in Bridlington, England, United Kingdom

Now
69 °F

Mild.


Feels Like: 69 °F
Forecast: 53 / 64 °F
Wind: 7 mph from Southwest

Location: Bridlington Mrsc

Current Time: Sep 30, 2014 at 2:51:32 PM

Latest Report: Sep 30, 2014 at 2:00 PM


Visibility: N/A

Pressure: 30.15 "Hg

Humidity: 63%

Dew point: 56 °F

Location of BridlingtonLocation

Historic Weather in Bridlington — Graph

°F

Bridlington temperature yesterday

Maximum temperature yesterday: 61 °F (at 2:00 PM)
Minimum temperature yesterday: 54 °F (at 6:00 AM)
Average temperature yesterday: 57 °F

Past Weeks' High & Low Weather Summary

 TemperatureHumidityPressure
High68 °F (Sep 26, 1:00 PM)100% (Sep 16, 4:00 AM)30.32 "Hg (Sep 16, 4:00 AM)
Low43 °F (Sep 25, 5:00 AM)47% (Sep 26, 4:00 PM)29.77 "Hg (Sep 24, 8:00 AM)
Average57 °F88%30.06 "Hg
* Reported Sep 15 1:00 PM — Sep 30 1:00 PM, Bridlington, Weather by CustomWeather, © 2014

Note: Actual official high and low records may vary slightly from our data, if they occured in-between our weather recording intervals... More about our weather records

Advertising

Bridlington weather history for previous 24 hours

 ConditionsComfort  
Time TempWeatherWind HumidityBarometerVisibility
1:00 PM
Sep 30
66 °FMild.9 mph71%30.15 "HgN/A
12:00 PM64 °FMild.6 mph80%30.15 "HgN/A
11:00 AM64 °FMild.5 mph85%30.14 "HgN/A
10:00 AM61 °FCool.3 mph93%30.13 "HgN/A
9:00 AM58 °FCool.7 mph100%30.13 "HgN/A
8:00 AM58 °FCool.5 mph100%30.12 "HgN/A
7:00 AM58 °FCool.3 mph100%30.10 "HgN/A
6:00 AM57 °FCool.3 mph100%30.09 "HgN/A
5:00 AM57 °FCool.3 mph100%30.09 "HgN/A
4:00 AM58 °FCool.5 mph100%30.09 "HgN/A
3:00 AM58 °FCool.6 mph100%30.09 "HgN/A
2:00 AM58 °FCool.5 mph100%30.09 "HgN/A
1:00 AM58 °FCool.2 mph100%30.09 "HgN/A
12:00 AM58 °FCool.5 mph100%30.10 "HgN/A
11:00 PM
Sep 29
58 °FCool.3 mph100%30.10 "HgN/A
10:00 PM58 °FCool.5 mph99%30.10 "HgN/A
9:00 PM58 °FCool.5 mph99%30.10 "HgN/A
8:00 PM58 °FCool.3 mph96%30.10 "HgN/A
7:00 PM58 °FCool.5 mph95%30.10 "HgN/A
6:00 PM59 °FCool.3 mph92%30.09 "HgN/A
5:00 PM60 °FCool.1 mph92%30.10 "HgN/A
4:00 PM60 °FCool.5 mph89%30.10 "HgN/A
3:00 PM60 °FCool.5 mph89%30.11 "HgN/A
2:00 PM61 °FCool.3 mph87%30.10 "HgN/A
Weather by CustomWeather, © 2014

See weather overviewHow to use our weather pages